FW7376 Weather Reports


Display with metric or nautical units.
time (UTC)temp
F
wind
direction
speed
MPH
gust
MPH
rain 1hr
in
rain 24hr
in
rain mn
in
humidity
%
barometer
mb
20260504050104 42 0 0.0 2.0 0.00 0.00 0.00 69 1017.6
20260504045604 42 0 1.0 2.0 0.00 0.00 0.00 69 1017.6
20260504044604 42 0 1.0 2.0 0.00 0.00 0.00 69 1017.6
20260504044105 42 0 1.0 2.0 0.00 0.00 0.00 69 1017.6
20260504042104 42 0 1.0 2.0 0.00 0.00 0.00 70 1017.6
20260504040105 43 0 1.0 2.0 0.00 0.00 0.00 68 1017.4
20260504035104 43 0 1.0 2.0 0.00 0.00 0.00 67 1017.3
20260504034104 43 0 1.0 3.0 0.00 0.00 0.00 66 1017.3
20260504032604 44 0 1.0 3.0 0.00 0.00 0.00 65 1017.3
20260504032105 44 0 2.0 3.0 0.00 0.00 0.00 65 1017.4
20260504031604 44 0 1.0 2.0 0.00 0.00 0.00 64 1017.5
20260504031104 44 0 0.0 3.0 0.00 0.00 0.00 63 1017.5
20260504030604 45 0 1.0 2.0 0.00 0.00 0.00 64 1017.5
20260504030105 45 0 0.0 1.0 0.00 0.00 0.00 63 1017.4
20260504025604 45 0 1.0 2.0 0.00 0.00 0.00 63 1017.4
20260504024604 45 0 2.0 3.0 0.00 0.00 0.00 64 1017.2
20260504024105 45 0 1.0 2.0 0.00 0.00 0.00 63 1017.2
20260504023105 45 0 0.0 2.0 0.00 0.00 0.00 62 1017.2
20260504021605 46 328 2.0 3.0 0.00 0.00 0.00 62 1017.1
20260504020606 46 319 2.0 2.0 0.00 0.00 0.00 61 1017.0
20260504015106 46 317 2.0 2.0 0.00 0.00 0.00 60 1017.0
20260504014606 46 317 1.0 2.0 0.00 0.00 0.00 60 1017.0
20260504014106 47 317 1.0 3.0 0.00 0.00 0.00 60 1017.0
20260504013106 47 314 1.0 3.0 0.00 0.00 0.00 60 1016.8
20260504011105 49 314 1.0 2.0 0.00 0.00 0.00 57 1016.7
20260504005105 50 314 0.0 0.0 0.00 0.00 0.00 52 1016.6
20260504004606 51 314 0.0 2.0 0.00 0.00 0.00 51 1016.6
20260504004105 51 314 1.0 3.0 0.00 0.00 0.00 50 1016.7
20260504003605 52 314 3.0 3.0 0.00 0.00 0.00 48 1016.6
20260504003106 53 319 1.0 2.0 0.00 0.00 0.00 47 1016.5
20260504002605 54 319 0.0 2.0 0.00 0.00 0.00 44 1016.5
20260504001605 55 319 0.0 0.0 0.00 0.00 0.00 42 1016.4
20260504001105 55 319 0.0 0.0 0.00 0.00 0.00 41 1016.4
20260504000106 56 319 0.0 0.0 0.00 0.00 0.00 39 1016.3
20260503235605 56 319 1.0 3.0 0.00 0.00 0.00 36 1016.2
20260503234605 57 319 3.0 5.0 0.00 0.00 0.00 34 1016.1
20260503234105 57 317 3.0 5.0 0.00 0.00 0.00 34 1016.1
20260503233605 57 317 3.0 5.0 0.00 0.00 0.00 33 1016.0
20260503232605 58 313 3.0 8.0 0.00 0.00 0.00 33 1016.0
20260503232105 58 323 3.0 6.0 0.00 0.00 0.00 34 1016.1
20260503231606 58 326 3.0 6.0 0.00 0.00 0.00 32 1016.0
20260503230605 59 319 3.0 7.0 0.00 0.00 0.00 32 1015.8
20260503230106 59 327 5.0 12.0 0.00 0.00 0.00 31 1015.8
20260503225105 59 323 6.0 10.0 0.00 0.00 0.00 32 1015.8
20260503223105 60 316 8.0 13.0 0.00 0.00 0.00 31 1015.9
20260503222105 60 325 7.0 13.0 0.00 0.00 0.00 30 1015.9
20260503215605 61 312 5.0 10.0 0.00 0.00 0.00 31 1016.0
20260503215105 61 306 5.0 13.0 0.00 0.00 0.00 31 1016.0
20260503214606 61 311 4.0 12.0 0.00 0.00 0.00 33 1016.1
20260503214105 61 328 8.0 14.0 0.00 0.00 0.00 31 1016.2
20260503213105 60 309 6.0 14.0 0.00 0.00 0.00 33 1016.1
20260503211605 60 307 6.0 12.0 0.00 0.00 0.00 32 1016.1
20260503211105 60 307 6.0 13.0 0.00 0.00 0.00 33 1016.0
20260503210605 60 315 8.0 13.0 0.00 0.00 0.00 32 1016.0
20260503210106 60 314 3.0 10.0 0.00 0.00 0.00 33 1016.1
20260503204606 60 316 6.0 12.0 0.00 0.00 0.00 34 1016.1
20260503203605 59 305 6.0 14.0 0.00 0.00 0.00 32 1016.2
20260503203105 59 295 7.0 12.0 0.00 0.00 0.00 34 1016.2
20260503202605 58 328 6.0 10.0 0.00 0.00 0.00 33 1016.2
20260503202105 58 316 9.0 20.0 0.00 0.00 0.00 31 1016.3
20260503201605 59 320 7.0 16.0 0.00 0.00 0.00 31 1016.4
20260503201105 59 317 12.0 15.0 0.00 0.00 0.00 34 1016.4
20260503195105 59 311 7.0 17.0 0.00 0.00 0.00 32 1016.7
20260503192605 60 319 10.0 17.0 0.00 0.00 0.00 31 1017.0
20260503191105 59 344 9.0 17.0 0.00 0.00 0.00 29 1017.2
20260503185105 59 316 8.0 14.0 0.00 0.00 0.00 31 1017.3
20260503184605 59 310 5.0 9.0 0.00 0.00 0.00 33 1017.3
20260503183105 58 313 7.0 12.0 0.00 0.00 0.00 32 1017.5
20260503182105 58 318 6.0 10.0 0.00 0.00 0.00 33 1017.5
20260503175605 57 307 7.0 17.0 0.00 0.00 0.00 34 1017.8
20260503174605 57 322 9.0 18.0 0.00 0.00 0.00 33 1017.9
20260503173106 56 310 5.0 12.0 0.00 0.00 0.00 36 1017.9
20260503140105 47 336 8.0 14.0 0.00 0.00 0.00 57 1019.5
20260503131105 45 312 6.0 12.0 0.00 0.00 0.00 59 1019.7
20260503110604 37 316 1.0 3.0 0.00 0.00 0.00 74 1018.9
20260503100105 36 317 1.0 2.0 0.00 0.00 0.00 75 1017.9
20260503090105 37 312 2.0 3.0 0.00 0.00 0.00 75 1017.4
20260503081604 38 313 1.0 3.0 0.00 0.00 0.00 71 1017.3
20260503081105 38 313 2.0 3.0 0.00 0.00 0.00 71 1017.3
20260503080605 39 313 3.0 5.0 0.00 0.00 0.00 71 1017.3
20260503080105 39 313 1.0 3.0 0.00 0.00 0.00 71 1017.3
20260503072604 39 316 2.0 6.0 0.00 0.00 0.00 71 1016.8
20260503072104 39 312 2.0 5.0 0.00 0.00 0.00 72 1016.8
20260503071604 40 318 2.0 5.0 0.00 0.00 0.00 72 1016.8
20260503071104 40 317 3.0 6.0 0.00 0.00 0.00 72 1016.8
20260503070605 40 330 3.0 9.0 0.00 0.00 0.00 72 1016.7
20260503070105 40 322 5.0 8.0 0.00 0.00 0.00 73 1016.6
20260503053604 40 317 1.0 3.0 0.00 0.00 0.00 73 1016.5
20260503052604 40 317 2.0 5.0 0.00 0.00 0.00 73 1016.5
20260503052104 40 319 0.0 2.0 0.00 0.00 0.00 73 1016.5
20260503051604 40 319 1.0 3.0 0.00 0.00 0.00 73 1016.5